| time (UTC) | temp F | wind direction | speed knots | gust knots | rain 1hr in | rain 24hr in | rain mn in | humidity % | barometer mb |
| 20260508191521 | 74 | 189 | 3.5 | 7.8 | 0.00 | 0.00 | 0.00 | 51 | 1010.5 |
| 20260508190516 | 74 | 194 | 3.5 | 12.2 | 0.00 | 0.00 | 0.00 | 54 | 1010.7 |
| 20260508185521 | 73 | 175 | 3.5 | 10.4 | 0.00 | 0.00 | 0.00 | 51 | 1010.9 |
| 20260508184521 | 74 | 196 | 2.6 | 8.7 | 0.00 | 0.00 | 0.00 | 52 | 1011.0 |
| 20260508183521 | 73 | 185 | 2.6 | 11.3 | 0.00 | 0.00 | 0.00 | 57 | 1011.2 |
| 20260508182541 | 72 | 178 | 2.6 | 7.8 | 0.00 | 0.00 | 0.00 | 51 | 1011.1 |
| 20260508181521 | 73 | 197 | 1.7 | 8.7 | 0.00 | 0.00 | 0.00 | 54 | 1011.3 |
| 20260508180541 | 72 | 165 | 1.7 | 8.7 | 0.00 | 0.00 | 0.00 | 56 | 1011.4 |
| 20260508175515 | 72 | 181 | 2.6 | 10.4 | 0.00 | 0.00 | 0.00 | 54 | 1011.6 |
| 20260508174521 | 71 | 171 | 1.7 | 7.8 | 0.00 | 0.00 | 0.00 | 56 | 1011.8 |
| 20260508173520 | 71 | 173 | 3.5 | 10.4 | 0.00 | 0.00 | 0.00 | 56 | 1012.1 |
| 20260508172521 | 71 | 182 | 2.6 | 9.6 | 0.00 | 0.00 | 0.00 | 55 | 1012.3 |
| 20260508171521 | 72 | 193 | 2.6 | 9.6 | 0.00 | 0.00 | 0.00 | 57 | 1012.4 |
| 20260508170521 | 71 | 208 | 3.5 | 7.8 | 0.00 | 0.00 | 0.00 | 57 | 1012.6 |
| 20260508165516 | 70 | 187 | 1.7 | 8.7 | 0.00 | 0.00 | 0.00 | 57 | 1012.7 |
| 20260508164516 | 70 | 189 | 2.6 | 9.6 | 0.00 | 0.00 | 0.00 | 55 | 1013.0 |
| 20260508163541 | 69 | 193 | 2.6 | 11.3 | 0.00 | 0.00 | 0.00 | 58 | 1013.1 |
| 20260508162520 | 68 | 190 | 3.5 | 8.7 | 0.00 | 0.00 | 0.00 | 56 | 1013.2 |
| 20260508161521 | 68 | 190 | 2.6 | 9.6 | 0.00 | 0.00 | 0.00 | 60 | 1013.3 |
| 20260508160519 | 67 | 182 | 1.7 | 7.8 | 0.00 | 0.00 | 0.00 | 58 | 1013.2 |
| 20260508155521 | 67 | 192 | 3.5 | 7.8 | 0.00 | 0.00 | 0.00 | 56 | 1013.5 |
| 20260508154536 | 66 | 188 | 3.5 | 12.2 | 0.00 | 0.00 | 0.00 | 60 | 1013.6 |
| 20260508153521 | 66 | 171 | 2.6 | 10.4 | 0.00 | 0.00 | 0.00 | 60 | 1013.6 |
| 20260508152520 | 66 | 187 | 2.6 | 13.0 | 0.00 | 0.00 | 0.00 | 58 | 1013.5 |
| 20260508151601 | 65 | 179 | 2.6 | 8.7 | 0.00 | 0.00 | 0.00 | 59 | 1013.5 |
| 20260508150521 | 65 | 192 | 2.6 | 8.7 | 0.00 | 0.00 | 0.00 | 60 | 1013.7 |
| 20260508145521 | 65 | 184 | 3.5 | 7.0 | 0.00 | 0.00 | 0.00 | 61 | 1013.8 |
| 20260508144516 | 65 | 191 | 3.5 | 9.6 | 0.00 | 0.00 | 0.00 | 59 | 1014.0 |
| 20260508143536 | 64 | 191 | 1.7 | 6.1 | 0.00 | 0.00 | 0.00 | 63 | 1014.0 |
| 20260508142541 | 64 | 174 | 2.6 | 8.7 | 0.00 | 0.00 | 0.00 | 61 | 1014.1 |
| 20260508141521 | 63 | 188 | 3.5 | 7.8 | 0.00 | 0.00 | 0.00 | 62 | 1014.3 |
| 20260508140520 | 63 | 199 | 1.7 | 5.2 | 0.00 | 0.00 | 0.00 | 65 | 1014.4 |
| 20260508135540 | 62 | 214 | 0.9 | 7.0 | 0.00 | 0.00 | 0.00 | 63 | 1014.5 |
| 20260508134520 | 61 | 190 | 2.6 | 6.1 | 0.00 | 0.00 | 0.00 | 64 | 1014.4 |
| 20260508133516 | 60 | 190 | 2.6 | 7.8 | 0.00 | 0.00 | 0.00 | 66 | 1014.6 |
| 20260508132520 | 59 | 194 | 0.9 | 7.0 | 0.00 | 0.00 | 0.00 | 68 | 1014.5 |
| 20260508131521 | 57 | 187 | 2.6 | 7.8 | 0.00 | 0.00 | 0.00 | 68 | 1014.4 |
| 20260508130521 | 56 | 193 | 2.6 | 7.0 | 0.00 | 0.00 | 0.00 | 69 | 1014.6 |
| 20260508125520 | 55 | 176 | 1.7 | 6.1 | 0.00 | 0.00 | 0.00 | 69 | 1014.7 |
| 20260508124520 | 54 | 178 | 0.9 | 4.3 | 0.00 | 0.00 | 0.00 | 70 | 1014.6 |
| 20260508123521 | 53 | 164 | 0.9 | 4.3 | 0.00 | 0.00 | 0.00 | 70 | 1014.5 |
| 20260508122515 | 52 | 155 | 0.0 | 1.7 | 0.00 | 0.00 | 0.00 | 72 | 1014.5 |
| 20260508121541 | 51 | 0.0 | 0.0 | 0.00 | 0.00 | 0.00 | 74 | 1014.4 | |
| 20260508120541 | 50 | 0.0 | 0.0 | 0.00 | 0.00 | 0.00 | 75 | 1014.5 | |
| 20260508115521 | 50 | 0.0 | 0.0 | 0.00 | 0.00 | 0.00 | 75 | 1014.4 | |
| 20260508114520 | 50 | 0.0 | 0.0 | 0.00 | 0.00 | 0.00 | 75 | 1014.4 | |
| 20260508113520 | 49 | 0.0 | 0.0 | 0.00 | 0.00 | 0.00 | 74 | 1014.3 | |
| 20260508112515 | 49 | 0.0 | 0.0 | 0.00 | 0.00 | 0.00 | 73 | 1014.3 | |
| 20260508111536 | 50 | 0.0 | 1.7 | 0.00 | 0.00 | 0.00 | 72 | 1014.2 | |
| 20260508110521 | 50 | 0.0 | 1.7 | 0.00 | 0.00 | 0.00 | 73 | 1014.2 | |
| 20260508105520 | 50 | 155 | 0.0 | 1.7 | 0.00 | 0.00 | 0.00 | 72 | 1014.2 |
| 20260508104520 | 50 | 0.0 | 0.0 | 0.00 | 0.00 | 0.00 | 72 | 1014.2 | |
| 20260508103520 | 50 | 0.0 | 1.7 | 0.00 | 0.00 | 0.00 | 71 | 1014.1 | |
| 20260508102541 | 51 | 155 | 0.0 | 1.7 | 0.00 | 0.00 | 0.00 | 70 | 1014.1 |
| 20260508101515 | 51 | 154 | 0.0 | 1.7 | 0.00 | 0.00 | 0.00 | 69 | 1014.1 |
| 20260508100521 | 51 | 156 | 0.0 | 3.5 | 0.00 | 0.00 | 0.00 | 69 | 1014.2 |
| 20260508095521 | 51 | 175 | 0.0 | 1.7 | 0.00 | 0.00 | 0.00 | 68 | 1014.2 |
| 20260508094520 | 51 | 175 | 0.0 | 1.7 | 0.00 | 0.00 | 0.00 | 68 | 1014.2 |
| 20260508093521 | 51 | 175 | 0.0 | 1.7 | 0.00 | 0.00 | 0.00 | 69 | 1014.1 |
| 20260508092521 | 51 | 175 | 0.0 | 1.7 | 0.00 | 0.00 | 0.00 | 69 | 1014.1 |
| 20260508091521 | 51 | 178 | 0.9 | 4.3 | 0.00 | 0.00 | 0.00 | 68 | 1014.2 |
| 20260508090536 | 51 | 167 | 0.0 | 2.6 | 0.00 | 0.00 | 0.00 | 69 | 1014.1 |
| 20260508085521 | 51 | 167 | 0.0 | 1.7 | 0.00 | 0.00 | 0.00 | 70 | 1014.1 |
| 20260508084520 | 51 | 167 | 0.0 | 1.7 | 0.00 | 0.00 | 0.00 | 71 | 1014.3 |
| 20260508083520 | 51 | 0.0 | 0.0 | 0.00 | 0.00 | 0.00 | 70 | 1014.2 | |
| 20260508082520 | 51 | 167 | 0.0 | 1.7 | 0.00 | 0.00 | 0.00 | 70 | 1014.3 |
| 20260508081520 | 51 | 167 | 0.0 | 1.7 | 0.00 | 0.00 | 0.00 | 70 | 1014.4 |
| 20260508080515 | 51 | 0.0 | 1.7 | 0.00 | 0.00 | 0.00 | 71 | 1014.4 | |
| 20260508075515 | 51 | 167 | 0.0 | 1.7 | 0.00 | 0.00 | 0.00 | 71 | 1014.5 |
| 20260508074520 | 50 | 0.0 | 1.7 | 0.00 | 0.00 | 0.00 | 72 | 1014.5 | |
| 20260508073520 | 50 | 0.0 | 0.0 | 0.00 | 0.00 | 0.00 | 73 | 1014.6 | |
| 20260508072520 | 50 | 0.0 | 0.0 | 0.00 | 0.00 | 0.00 | 73 | 1014.7 | |
| 20260508071521 | 50 | 0.0 | 0.0 | 0.00 | 0.00 | 0.00 | 74 | 1014.8 | |
| 20260508070520 | 49 | 0.0 | 0.9 | 0.00 | 0.00 | 0.00 | 77 | 1014.9 | |
| 20260508065515 | 50 | 167 | 0.0 | 1.7 | 0.00 | 0.00 | 0.00 | 75 | 1014.9 |
| 20260508064515 | 51 | 0.0 | 0.0 | 0.00 | 0.00 | 0.00 | 71 | 1015.0 | |
| 20260508063521 | 51 | 0.0 | 0.9 | 0.00 | 0.00 | 0.00 | 70 | 1015.0 | |
| 20260508062520 | 51 | 167 | 0.0 | 1.7 | 0.00 | 0.00 | 0.00 | 69 | 1015.1 |
| 20260508061520 | 51 | 167 | 0.0 | 1.7 | 0.00 | 0.00 | 0.00 | 69 | 1015.3 |
| 20260508060518 | 52 | 0.0 | 1.7 | 0.00 | 0.00 | 0.00 | 67 | 1015.2 | |
| 20260508055520 | 52 | 165 | 0.0 | 1.7 | 0.00 | 0.00 | 0.00 | 67 | 1015.2 |
| 20260508054515 | 52 | 169 | 0.0 | 1.7 | 0.00 | 0.00 | 0.00 | 67 | 1015.1 |
| 20260508053520 | 53 | 169 | 0.0 | 1.7 | 0.00 | 0.00 | 0.00 | 66 | 1015.0 |
| 20260508052520 | 53 | 169 | 0.0 | 1.7 | 0.00 | 0.00 | 0.00 | 67 | 1015.1 |
| 20260508051521 | 53 | 169 | 0.0 | 1.7 | 0.00 | 0.00 | 0.00 | 65 | 1015.0 |
| 20260508050520 | 53 | 169 | 0.0 | 2.6 | 0.00 | 0.00 | 0.00 | 65 | 1015.1 |
| 20260508045521 | 53 | 186 | 0.0 | 1.7 | 0.00 | 0.00 | 0.00 | 65 | 1015.1 |
| 20260508044541 | 53 | 188 | 0.0 | 1.7 | 0.00 | 0.00 | 0.00 | 64 | 1015.3 |
| 20260508043521 | 54 | 187 | 0.0 | 2.6 | 0.00 | 0.00 | 0.00 | 63 | 1015.3 |
| 20260508042522 | 54 | 187 | 0.0 | 2.6 | 0.00 | 0.00 | 0.00 | 63 | 1015.4 |
| 20260508041516 | 54 | 191 | 0.0 | 3.5 | 0.00 | 0.00 | 0.00 | 61 | 1015.4 |
| 20260508040521 | 54 | 191 | 0.9 | 4.3 | 0.00 | 0.00 | 0.00 | 62 | 1015.4 |
| 20260508035521 | 54 | 194 | 0.0 | 2.6 | 0.00 | 0.00 | 0.00 | 62 | 1015.2 |
| 20260508034541 | 54 | 197 | 0.0 | 1.7 | 0.00 | 0.00 | 0.00 | 62 | 1015.1 |
| 20260508033541 | 54 | 197 | 0.0 | 1.7 | 0.00 | 0.00 | 0.00 | 64 | 1015.1 |
| 20260508032522 | 54 | 197 | 0.0 | 1.7 | 0.00 | 0.00 | 0.00 | 65 | 1015.0 |
| 20260508031516 | 55 | 197 | 0.0 | 1.7 | 0.00 | 0.00 | 0.00 | 66 | 1014.9 |
| 20260508030536 | 55 | 197 | 0.0 | 1.7 | 0.00 | 0.00 | 0.00 | 63 | 1014.9 |
| 20260508025521 | 55 | 196 | 0.0 | 1.7 | 0.00 | 0.00 | 0.00 | 62 | 1014.8 |
| 20260508024521 | 56 | 0.0 | 1.7 | 0.00 | 0.00 | 0.00 | 61 | 1014.8 | |
| 20260508023521 | 56 | 197 | 0.0 | 1.7 | 0.00 | 0.00 | 0.00 | 59 | 1014.8 |
| 20260508022540 | 56 | 197 | 0.0 | 2.6 | 0.00 | 0.00 | 0.00 | 61 | 1014.7 |
| 20260508021522 | 56 | 198 | 0.0 | 1.7 | 0.00 | 0.00 | 0.00 | 63 | 1014.6 |
| 20260508020516 | 57 | 198 | 0.0 | 3.5 | 0.00 | 0.00 | 0.00 | 61 | 1014.6 |
| 20260508015521 | 57 | 200 | 0.0 | 2.6 | 0.00 | 0.00 | 0.00 | 62 | 1014.4 |
| 20260508014521 | 57 | 200 | 0.0 | 1.7 | 0.00 | 0.00 | 0.00 | 61 | 1014.3 |
| 20260508013521 | 57 | 0.0 | 0.0 | 0.00 | 0.00 | 0.00 | 64 | 1014.1 | |
| 20260508012521 | 57 | 0.0 | 0.0 | 0.00 | 0.00 | 0.00 | 66 | 1014.1 | |
| 20260508011521 | 57 | 0.0 | 0.0 | 0.00 | 0.00 | 0.00 | 70 | 1014.0 | |
| 20260508010521 | 57 | 0.0 | 0.0 | 0.00 | 0.00 | 0.00 | 72 | 1013.9 | |
| 20260508005516 | 57 | 0.0 | 0.0 | 0.00 | 0.00 | 0.00 | 65 | 1013.8 | |
| 20260508004541 | 59 | 0.0 | 0.0 | 0.00 | 0.00 | 0.00 | 62 | 1013.8 | |
| 20260508003521 | 60 | 200 | 0.0 | 0.9 | 0.00 | 0.00 | 0.00 | 62 | 1013.7 |
| 20260508002521 | 61 | 0.0 | 0.0 | 0.00 | 0.00 | 0.00 | 54 | 1013.6 | |
| 20260508001521 | 61 | 200 | 0.0 | 1.7 | 0.00 | 0.00 | 0.00 | 54 | 1013.6 |
| 20260508000521 | 62 | 199 | 0.0 | 1.7 | 0.00 | 0.00 | 0.00 | 53 | 1013.6 |
| 20260507235516 | 63 | 199 | 0.0 | 1.7 | 0.00 | 0.00 | 0.00 | 48 | 1013.6 |
| 20260507234521 | 64 | 0.0 | 0.0 | 0.00 | 0.00 | 0.00 | 43 | 1013.7 | |
| 20260507233521 | 64 | 0.0 | 1.7 | 0.00 | 0.00 | 0.00 | 42 | 1013.7 | |
| 20260507232521 | 64 | 199 | 0.0 | 1.7 | 0.00 | 0.00 | 0.00 | 44 | 1014.0 |
| 20260507231521 | 64 | 200 | 0.0 | 1.7 | 0.00 | 0.00 | 0.00 | 44 | 1014.1 |
| 20260507230521 | 65 | 199 | 0.9 | 2.6 | 0.00 | 0.00 | 0.00 | 36 | 1014.1 |
| 20260507225521 | 65 | 199 | 0.0 | 4.3 | 0.00 | 0.00 | 0.00 | 36 | 1014.2 |
| 20260507224516 | 65 | 200 | 0.0 | 5.2 | 0.00 | 0.00 | 0.00 | 36 | 1014.2 |
| 20260507223521 | 65 | 226 | 0.9 | 3.5 | 0.00 | 0.00 | 0.00 | 37 | 1014.3 |
| 20260507222521 | 65 | 233 | 0.0 | 2.6 | 0.00 | 0.00 | 0.00 | 38 | 1014.3 |
| 20260507221541 | 66 | 234 | 0.0 | 1.7 | 0.00 | 0.00 | 0.00 | 37 | 1014.5 |
| 20260507220521 | 65 | 233 | 0.9 | 3.5 | 0.00 | 0.00 | 0.00 | 36 | 1014.6 |
| 20260507215521 | 66 | 237 | 0.0 | 4.3 | 0.00 | 0.00 | 0.00 | 38 | 1014.6 |
| 20260507214516 | 65 | 199 | 0.0 | 3.5 | 0.00 | 0.00 | 0.00 | 37 | 1014.6 |
| 20260507213516 | 66 | 211 | 0.9 | 3.5 | 0.00 | 0.00 | 0.00 | 41 | 1014.7 |
| 20260507212521 | 66 | 250 | 0.9 | 7.8 | 0.00 | 0.00 | 0.00 | 35 | 1014.8 |
| 20260507211521 | 65 | 273 | 0.9 | 3.5 | 0.00 | 0.00 | 0.00 | 35 | 1014.9 |
| 20260507210521 | 66 | 259 | 1.7 | 6.1 | 0.00 | 0.00 | 0.00 | 40 | 1015.0 |
| 20260507205521 | 65 | 270 | 1.7 | 5.2 | 0.00 | 0.00 | 0.00 | 42 | 1014.9 |
| 20260507204521 | 65 | 269 | 1.7 | 8.7 | 0.00 | 0.00 | 0.00 | 39 | 1014.9 |
| 20260507203516 | 66 | 272 | 2.6 | 7.0 | 0.00 | 0.00 | 0.00 | 41 | 1015.0 |
| 20260507202521 | 65 | 270 | 1.7 | 6.1 | 0.00 | 0.00 | 0.00 | 39 | 1015.1 |
| 20260507201542 | 64 | 249 | 0.0 | 4.3 | 0.00 | 0.00 | 0.00 | 37 | 1015.3 |
| 20260507200521 | 65 | 223 | 0.9 | 3.5 | 0.00 | 0.00 | 0.00 | 39 | 1015.4 |
| 20260507195521 | 65 | 229 | 0.9 | 4.3 | 0.00 | 0.00 | 0.00 | 35 | 1015.7 |
| 20260507194521 | 66 | 273 | 1.7 | 5.2 | 0.00 | 0.00 | 0.00 | 43 | 1015.8 |
| 20260507193516 | 65 | 282 | 0.9 | 2.6 | 0.00 | 0.00 | 0.00 | 37 | 1015.8 |
| 20260507192516 | 65 | 287 | 0.0 | 5.2 | 0.00 | 0.00 | 0.00 | 36 | 1015.9 |